Regional Weather Roundup
Issued by NWS State College, PA

Home | Current Version | Previous Version | Graphics & Text | Print | Product List | Glossary On
Versions: 1 2 3 4 5 6 7 8 9 10 11 12 13 14 15 16 17 18 19 20 21 22 23 24 25 26 27 28 29 30 31 32 33 34 35 36 37 38 39 40 41 42 43 44 45 46 47 48 49 50
000
ASUS41 KCTP 282103
RWRCTP

REGIONAL WEATHER ROUNDUP
NATIONAL WEATHER SERVICE STATE COLLEGE PA
500 PM EDT TUE MAR 28 2017

Note: "fair" indicates few or no clouds below 12,000 feet with no
significant weather and/or obstructions to visibility.

* = STATION THAT DOES NOT REPORT PRECIPITATION /E.G. RAIN...SNOW...ETC/
    THUNDER OR FOG.

PAZ002>004-007>009-013>016-020>023-029>032-282200-
WESTERN PENNSYLVANIA

CITY           SKY/WX    TMP DP  RH WIND       PRES   REMARKS
ERIE           CLOUDY    45  41  86 NE5       30.02R
MEADVILLE      CLOUDY    46  41  82 N10       29.99R
FRANKLIN*      CLOUDY    52  45  76 NW6       29.97R
NEW CASTLE     CLOUDY    51  46  83 N14       29.98R
BEAVER COUNTY  CLOUDY    55  48  76 N12G17    29.97R
BUTLER*        CLOUDY    55  48  76 NW9       29.96R
PITTSBURGH INT CLOUDY    58  51  78 NW14      29.94R
PITTSBURGH     CLOUDY    55  50  83 N9        29.92R
INDIANA*       CLOUDY    57  55  94 NW7G14    29.94R
LATROBE        LGT RAIN  57  57 100 NW8       29.92R FOG
WASHINGTON CO* CLOUDY    55  50  82 NW7       29.96S
$$

PAZ004>006-010>012-017>019-024>028-033>037-041-042-045-046-049>053-282200-
CENTRAL PENNSYLVANIA

CITY           SKY/WX    TMP DP  RH WIND       PRES   REMARKS
BRADFORD       CLOUDY    52  48  86 NW14      29.92R
DUBOIS         CLOUDY    54  48  80 NW9       29.91R
CLEARFIELD       N/A    N/A N/A N/A MISG      29.89R
JOHNSTOWN      CLOUDY    55  54  96 W7        29.89R
ALTOONA        HVY RAIN  57  55  94 N5        29.88R FOG
STATE COLLEGE  LGT RAIN  55  54  94 CALM      29.88R FOG
WILLIAMSPORT   LGT RAIN  57  54  89 W6        29.86R
SELINSGROVE    LGT RAIN  57  55  93 CALM      29.87R FOG
FT INDIANTOWN  LGT RAIN  53  53 100 CALM      29.86R
CAPITAL CITY   CLOUDY    57  52  83 CALM      29.86R
HARRISBURG     CLOUDY    54  53  97 W3        29.85R
YORK           CLOUDY    58  56  93 N7        29.84S
$$

PAZ038>040-043-044-047-048-054-055-060>062-067>071-282200-
EASTERN PENNSYLVANIA

CITY           SKY/WX    TMP DP  RH WIND       PRES   REMARKS
SCRANTON       CLOUDY    51  48  89 VRB7      29.85R
MOUNT POCONO   LGT RAIN  45  45 100 E3        29.85R VSB 1/4
ALLENTOWN      LGT RAIN  51  47  86 E5        29.86S FOG
QUAKERTOWN*    CLOUDY    48  48 100 NE3       29.86S
READING        LGT RAIN  51  51 100 N6        29.85S
LANCASTER      LGT RAIN  55  54  96 N5        29.84S
COATESVILLE    FOG       52  52 100 N5        29.85S VSB 1/2
POTTSTOWN      LGT RAIN  50  49  96 NE5       29.86S
BLUE BELL      CLOUDY    48  48 100 CALM      29.85R
DOYLESTOWN     RAIN      47  47 100 N6        29.85S FOG
WILLOW GROVE   NOT AVBL
NORTH PHILA    LGT RAIN  51  49  92 NE9       29.86F FOG
PHILADELPHIA   CLOUDY    53  50  89 N7        29.85R
$$




USA.gov is the U.S. government's official web portal to all federal, state and local government web resources and services.